sat.trackr.live / text

‹ back to catalog

ONEWEB-0522

NORAD 54140 · 2022-138AD

PAYLOAD ACTIVE UNKNOWN

§ Identity

Operator
Country
UK
Launch date
2022-10-22
Launch site
SRILR
Launch vehicle
Mass (kg)
RCS (m²)

Purposes: comms

External: N2YO · Heavens-Above · Gunter

§ Orbital elements

Epoch: 2026-09-20T01:33:45.224064Z

Period
109.11 min
Inclination
87.9113°
Eccentricity
0.0002010
Mean motion
13.19726680 rev/d
Perigee alt
1,184.2 km
Apogee alt
1,187.3 km
Semi-major
7,563.9 km
B*
-8.3597e-5
RAAN
286.0604°
Arg perigee
88.4849°
Mean anomaly
271.6514°
Rev number
18,932

§ Raw data

ONEWEB-05221 54140U 22138AD  26263.06510676 -.00000021  00000+0 -83597-4 0  99902 54140  87.9113 286.0604 0002010  88.4849 271.6514 13.19726680189327

JSON: /api/v1/satellites/54140 · /tle

For live sub-satellite position, see the globe view (requires WebGL).

§ Visibility from observer

Set your observer location to see the next 7 days of passes ≥ 10°. The values pass through the URL so the page stays shareable.

No JS? Fill the form by hand. The geolocation button needs JavaScript.